TimePST,TemperatureF,Dew PointF,Humidity,Sea Level PressureIn,VisibilityMPH,Wind Direction,Wind SpeedMPH,Gust SpeedMPH,PrecipitationIn,Events,Conditions,WindDirDegrees,DateUTC
12:01 AM,33.8,28.4,81,30.20,1.5,ESE,4.6,-,0.01,Snow,Light Snow,110,2012-11-12 08:01:00
12:09 AM,33.8,28.4,81,30.20,1.8,East,4.6,-,0.01,Snow,Light Snow,100,2012-11-12 08:09:00
12:15 AM,33.8,28.4,81,30.20,3.0,ESE,4.6,-,0.01,Snow,Light Snow,110,2012-11-12 08:15:00
12:53 AM,34.0,30.0,85,30.23,4.0,SE,3.5,-,0.01,Snow,Light Snow,130,2012-11-12 08:53:00
1:13 AM,33.8,30.2,87,30.19,5.0,Calm,Calm,-,0.00,,Overcast,0,2012-11-12 09:13:00
1:53 AM,34.0,28.9,82,30.22,4.0,Calm,Calm,-,0.01,Snow,Light Snow,0,2012-11-12 09:53:00
2:53 AM,34.0,28.9,82,30.21,2.0,Calm,Calm,-,0.00,Snow,Light Snow,0,2012-11-12 10:53:00
3:05 AM,33.8,30.2,87,30.17,5.0,Calm,Calm,-,0.01,Snow,Light Snow,0,2012-11-12 11:05:00
3:53 AM,34.0,28.9,82,30.21,10.0,Calm,Calm,-,0.01,,Overcast,0,2012-11-12 11:53:00
4:53 AM,34.0,28.9,82,30.21,6.0,Calm,Calm,-,0.00,Snow,Light Snow,0,2012-11-12 12:53:00
5:42 AM,33.8,28.4,81,30.15,4.0,Calm,Calm,-,0.00,Snow,Light Snow,0,2012-11-12 13:42:00
5:53 AM,34.0,28.9,82,30.20,8.0,NE,3.5,-,0.00,,Overcast,40,2012-11-12 13:53:00
6:10 AM,33.8,28.4,81,30.16,9.0,NE,4.6,-,N/A,,Overcast,50,2012-11-12 14:10:00
6:53 AM,35.1,28.9,78,30.20,6.0,Calm,Calm,-,0.01,Snow,Light Snow,0,2012-11-12 14:53:00
7:53 AM,35.1,28.9,78,30.22,8.0,Calm,Calm,-,0.00,,Overcast,0,2012-11-12 15:53:00
8:53 AM,35.1,30.0,82,30.22,6.0,Calm,Calm,-,N/A,,Haze,0,2012-11-12 16:53:00
9:11 AM,35.6,30.2,81,30.17,6.0,Calm,Calm,-,N/A,,Haze,0,2012-11-12 17:11:00
9:53 AM,35.1,30.0,82,30.22,4.0,WNW,3.5,-,N/A,,Haze,290,2012-11-12 17:53:00
10:53 AM,37.9,30.9,76,30.23,9.0,Calm,Calm,-,N/A,,Overcast,0,2012-11-12 18:53:00
11:53 AM,37.9,30.9,76,30.22,9.0,Calm,Calm,-,N/A,,Overcast,0,2012-11-12 19:53:00
12:53 PM,37.9,30.9,76,30.22,6.0,Calm,Calm,-,N/A,,Haze,0,2012-11-12 20:53:00
1:53 PM,39.0,32.0,76,30.21,7.0,Calm,Calm,-,N/A,,Overcast,0,2012-11-12 21:53:00
2:53 PM,37.9,32.0,79,30.22,6.0,Calm,Calm,-,N/A,,Haze,0,2012-11-12 22:53:00
3:53 PM,37.0,32.0,82,30.22,4.0,Calm,Calm,-,N/A,,Haze,0,2012-11-12 23:53:00
4:09 PM,37.4,30.2,75,30.18,4.0,ESE,3.5,-,N/A,,Haze,110,2012-11-13 00:09:00
4:49 PM,35.6,30.2,81,30.18,4.0,ESE,3.5,-,N/A,,Haze,120,2012-11-13 00:49:00
4:53 PM,36.0,30.9,82,30.23,3.0,SE,4.6,-,N/A,,Haze,130,2012-11-13 00:53:00
4:58 PM,35.6,30.2,81,30.18,2.5,ESE,3.5,-,N/A,,Haze,120,2012-11-13 00:58:00
5:08 PM,35.6,30.2,81,30.19,2.5,East,4.6,-,N/A,,Haze,90,2012-11-13 01:08:00
5:34 PM,35.6,32.0,87,30.18,4.0,Calm,Calm,-,N/A,,Overcast,0,2012-11-13 01:34:00
5:53 PM,37.0,32.0,82,30.24,5.0,South,3.5,-,N/A,,Haze,170,2012-11-13 01:53:00
6:40 PM,35.6,30.2,81,30.21,4.0,Calm,Calm,-,N/A,,Haze,0,2012-11-13 02:40:00
6:53 PM,36.0,30.9,82,30.25,3.0,East,3.5,-,N/A,,Haze,80,2012-11-13 02:53:00
7:53 PM,36.0,32.0,86,30.25,4.0,Calm,Calm,-,N/A,,Overcast,0,2012-11-13 03:53:00
8:53 PM,37.0,32.0,82,30.26,3.0,Calm,Calm,-,N/A,,Haze,0,2012-11-13 04:53:00
9:13 PM,37.4,32.0,81,30.22,2.5,Calm,Calm,-,N/A,,Haze,0,2012-11-13 05:13:00
9:53 PM,37.0,33.1,86,30.27,1.5,Calm,Calm,-,N/A,,Overcast,0,2012-11-13 05:53:00
10:04 PM,37.4,33.8,87,30.23,0.8,SE,3.5,-,N/A,,Overcast,130,2012-11-13 06:04:00
10:53 PM,37.0,33.1,86,30.27,0.8,Calm,Calm,-,N/A,,Mist,0,2012-11-13 06:53:00
11:27 PM,35.6,32.0,87,30.25,1.0,Calm,Calm,-,N/A,,Overcast,0,2012-11-13 07:27:00
11:42 PM,37.4,32.0,81,30.25,1.5,Calm,Calm,-,N/A,,Haze,0,2012-11-13 07:42:00
11:53 PM,37.0,32.0,82,30.29,2.0,Calm,Calm,-,N/A,,Haze,0,2012-11-13 07:53:00